Stations météo

Publicité
Gourette, France (7775): Température de l'air & dewpoint: 11.02.2019 17:00:00 - 17.02.2019 17:00:00 (CET)Gourette, France (7775): Vitesse du vent & gusts: 11.02.2019 17:00:00 - 17.02.2019 17:00:00 (CET)Gourette, France (7775): Direction du vent: 11.02.2019 17:00:00 - 17.02.2019 17:00:00 (CET)Gourette, France (7775): reduced air pressure: 11.02.2019 17:00:00 - 17.02.2019 17:00:00 (CET)Gourette, France (7775): visibility: 11.02.2019 17:00:00 - 17.02.2019 17:00:00 (CET)Gourette, France (7775): Quantités de précipitations: 11.02.2019 17:00:00 - 17.02.2019 17:00:00 (CET)
Date & Time tt [°C] td [°C] ff [km/h] ff [knt] fx [km/h] fx [knt] dd ppp [hPa] vv [km] rr [mm]
17.02.2019 17:00:00 13,2 5,4 7 4 14 7 SSE 1027,8 - 0,0
17.02.2019 16:00:00 14,6 6,2 7 4 17 9 SE 1028,0 - 0,0
17.02.2019 15:00:00 15,2 6,7 10 5 16 9 ESE 1028,3 - 0,0
17.02.2019 14:00:00 15,0 6,8 9 5 18 10 ESE 1028,7 - 0,0
17.02.2019 13:00:00 15,0 6,0 10 6 19 10 E 1029,1 - 0,0
17.02.2019 12:00:00 14,7 6,5 9 5 16 9 E 1030,0 - 0,0
17.02.2019 11:00:00 15,7 6,7 7 4 13 7 E 1030,1 - 0,0
17.02.2019 10:00:00 15,1 5,3 4 2 9 5 SSE 1030,2 20 0,0
17.02.2019 09:00:00 12,1 2,3 5 3 9 5 SW 1030,3 - 0,0
17.02.2019 08:00:00 10,0 0,0 6 4 8 5 W 1030,2 - 0,0
17.02.2019 07:00:00 9,5 -0,7 5 3 8 5 W 1029,7 20 0,0
17.02.2019 06:00:00 8,9 -0,4 5 3 13 7 W 1029,6 - 0,0
17.02.2019 05:00:00 9,5 -1,3 9 5 13 7 NNW 1029,3 - 0,0
17.02.2019 04:00:00 9,2 -1,0 10 6 16 9 NNW 1029,2 20 0,0
17.02.2019 03:00:00 10,4 -1,0 4 2 7 4 NNE 1029,5 - 0,0
17.02.2019 02:00:00 10,3 -0,5 2 1 5 3 WNW 1029,7 - 0,0
17.02.2019 01:00:00 10,9 -0,9 2 1 9 5 NW 1029,8 - 0,0
17.02.2019 00:00:00 11,2 0,0 5 3 7 4 NNE 1029,8 - 0,0
16.02.2019 23:00:00 10,9 -1,9 4 2 5 3 N 1029,8 - 0,0
16.02.2019 22:00:00 10,4 2,7 5 3 6 3 S 1030,1 - 0,0
16.02.2019 21:00:00 11,5 2,5 0 0 9 5 N 1029,9 - 0,0
16.02.2019 20:00:00 10,6 3,8 10 6 16 9 SW 1029,8 - 0,0
16.02.2019 19:00:00 9,8 4,0 16 9 18 10 SW 1029,7 - 0,0
16.02.2019 18:00:00 11,2 4,4 12 6 16 9 SSW 1029,4 - 0,0
16.02.2019 17:00:00 13,2 4,1 10 6 16 8 S 1029,2 - 0,0
16.02.2019 16:00:00 14,5 4,5 7 4 16 9 SE 1029,6 - 0,0
16.02.2019 15:00:00 15,2 5,1 9 5 16 9 ESE 1029,7 - 0,0
16.02.2019 14:00:00 15,4 5,6 9 5 18 10 E 1030,2 - 0,0
16.02.2019 13:00:00 15,5 4,5 12 6 19 10 ENE 1030,6 - 0,0
16.02.2019 12:00:00 15,1 4,7 10 5 17 9 E 1031,0 - 0,0
16.02.2019 11:00:00 15,9 3,3 6 3 15 8 E 1030,9 - 0,0
16.02.2019 10:00:00 14,6 3,4 9 5 14 8 S 1030,8 - 0,0
16.02.2019 09:00:00 12,6 4,0 10 5 12 6 SSW 1030,9 - 0,0
16.02.2019 08:00:00 10,7 1,8 4 2 11 6 S 1030,7 - 0,0
16.02.2019 07:00:00 11,1 1,9 4 2 17 9 ESE 1030,1 - 0,0
16.02.2019 06:00:00 11,2 -0,9 10 6 18 10 N 1029,9 - 0,0
16.02.2019 05:00:00 12,2 1,5 7 4 14 8 NW 1029,7 - 0,0
16.02.2019 04:00:00 10,0 0,0 6 3 21 11 NNW 1029,8 - 0,0
16.02.2019 03:00:00 10,7 -0,2 13 7 27 15 N 1030,2 - 0,0
16.02.2019 02:00:00 11,4 0,8 17 9 38 20 N 1030,4 - 0,0
16.02.2019 01:00:00 11,6 0,4 20 11 36 19 N 1030,3 - 0,0
16.02.2019 00:00:00 11,9 -0,6 19 10 30 16 NNW 1030,0 - 0,0
15.02.2019 23:00:00 11,3 1,5 25 13 30 16 NNW 1029,8 - 0,0
15.02.2019 22:00:00 9,7 7,3 16 9 30 16 N 1030,0 - 0,0
15.02.2019 21:00:00 10,5 7,7 20 11 29 16 N 1029,0 - 0,0
15.02.2019 20:00:00 10,7 8,8 18 10 25 13 N 1029,0 - 0,0
15.02.2019 19:00:00 11,0 8,2 16 9 22 12 N 1028,7 - 0,0
15.02.2019 18:00:00 11,9 7,8 16 8 24 13 W 1027,7 - 0,0
15.02.2019 17:00:00 14,0 8,6 16 9 36 20 N 1028,0 - 0,0
15.02.2019 16:00:00 14,7 9,3 25 14 36 20 NNE 1027,8 - 0,0
15.02.2019 15:00:00 16,9 10,0 26 14 36 19 NNE 1028,0 - 0,0
15.02.2019 14:00:00 16,5 9,7 26 14 37 20 NNE 1028,7 - 0,0
15.02.2019 13:00:00 17,0 9,4 23 12 34 18 NNE 1029,3 - 0,0
15.02.2019 12:00:00 16,8 9,5 23 13 37 20 N 1030,3 - 0,0
15.02.2019 11:00:00 16,0 9,2 26 14 37 20 NNE 1030,4 - 0,0
15.02.2019 10:00:00 15,0 8,5 19 10 28 15 N 1030,4 - 0,0
15.02.2019 09:00:00 12,4 4,1 18 10 24 13 N 1030,6 - 0,0
15.02.2019 08:00:00 10,9 0,3 9 5 18 10 NW 1030,7 - 0,0
15.02.2019 07:00:00 8,6 1,9 14 8 20 11 NNW 1030,4 - 0,0
15.02.2019 06:00:00 9,3 2,2 13 7 18 10 N 1030,5 - 0,0
15.02.2019 05:00:00 9,5 4,1 9 5 11 6 N 1030,6 - 0,0
15.02.2019 04:00:00 8,9 3,3 11 6 19 10 NNW 1031,3 - 0,0
15.02.2019 03:00:00 9,0 2,3 12 7 17 9 N 1031,8 - 0,0
15.02.2019 02:00:00 9,9 2,3 11 6 16 9 N 1031,3 - 0,0
15.02.2019 01:00:00 9,7 2,3 5 3 18 10 N 1031,2 - 0,0
15.02.2019 00:00:00 10,1 1,5 16 8 27 15 N 1031,3 - 0,0
14.02.2019 23:00:00 11,9 0,6 5 3 10 5 NNW 1031,6 - 0,0
14.02.2019 22:00:00 12,9 1,5 4 2 6 3 WNW 1031,6 - 0,0
14.02.2019 21:00:00 12,4 2,5 2 1 13 7 WSW 1031,8 - 0,0
14.02.2019 20:00:00 11,4 3,7 13 7 18 10 SW 1031,8 - 0,0
14.02.2019 19:00:00 10,7 3,9 14 7 15 8 WSW 1032,0 - 0,0
14.02.2019 18:00:00 11,6 5,5 10 5 18 10 NW 1031,8 - 0,0
14.02.2019 17:00:00 13,8 4,4 12 6 24 13 N 1031,8 - 0,0
14.02.2019 16:00:00 15,2 7,0 19 10 26 14 N 1032,0 - 0,0
14.02.2019 15:00:00 17,8 6,3 20 11 26 14 NNE 1032,0 - 0,0
14.02.2019 14:00:00 18,4 3,8 20 11 26 14 NNE 1032,3 - 0,0
14.02.2019 13:00:00 18,8 4,5 19 10 27 15 NNE 1033,1 - 0,0
14.02.2019 12:00:00 18,1 2,4 19 11 31 17 NNE 1033,7 - 0,0
14.02.2019 11:00:00 16,6 1,1 26 14 36 19 NNE 1034,0 - 0,0
14.02.2019 10:00:00 15,4 0,8 22 12 33 18 N 1034,3 30 0,0
14.02.2019 09:00:00 12,5 -0,8 21 11 33 18 N 1034,4 - 0,0
14.02.2019 08:00:00 10,0 -1,4 24 13 35 19 N 1034,5 - 0,0
14.02.2019 07:00:00 9,4 -1,4 23 12 34 19 N 1034,5 20 0,0
14.02.2019 06:00:00 10,1 -1,6 17 9 22 12 NNW 1034,7 - 0,0
14.02.2019 05:00:00 10,5 -1,9 18 10 28 15 NNW 1034,4 - 0,0
14.02.2019 04:00:00 9,9 -0,9 22 12 30 16 NNW 1034,8 - 0,0
14.02.2019 03:00:00 9,6 -1,8 23 12 31 17 NNW 1035,3 - 0,0
14.02.2019 02:00:00 9,8 -3,9 19 10 29 15 N 1035,7 - 0,0
14.02.2019 01:00:00 9,7 -4,7 21 12 29 16 N 1035,8 - 0,0
14.02.2019 00:00:00 9,2 -5,1 14 8 32 17 N 1035,7 - 0,0
13.02.2019 23:00:00 10,4 -4,8 24 13 31 17 NNW 1035,2 - 0,0
13.02.2019 22:00:00 8,9 -4,3 16 9 21 11 NNW 1035,6 - 0,0
13.02.2019 21:00:00 10,8 -4,5 16 8 23 12 NNW 1034,8 - 0,0
13.02.2019 20:00:00 10,6 -1,5 16 9 23 12 WNW 1034,4 - 0,0
13.02.2019 19:00:00 8,8 3,2 9 5 17 9 WNW 1034,7 - 0,0
13.02.2019 18:00:00 10,1 2,4 5 3 12 6 N 1034,4 - 0,0
13.02.2019 17:00:00 12,9 2,7 4 2 13 7 ENE 1033,8 - 0,0
13.02.2019 16:00:00 13,8 3,8 11 6 18 10 ENE 1033,5 - 0,0
13.02.2019 15:00:00 14,7 4,7 12 6 22 12 NE 1033,6 - 0,0
13.02.2019 14:00:00 14,5 4,2 16 8 23 13 ENE 1033,6 - 0,0
13.02.2019 13:00:00 14,0 3,7 16 9 24 13 ENE 1033,8 18 0,0
13.02.2019 12:00:00 14,1 4,4 13 7 26 14 ENE 1034,0 - 0,0
13.02.2019 11:00:00 14,8 6,9 14 7 23 13 ENE 1033,9 - 0,0
13.02.2019 10:00:00 15,1 6,6 6 3 13 7 NE 1033,5 - 0,0
13.02.2019 09:00:00 12,4 3,9 9 5 13 7 NW 1033,1 - 0,0
13.02.2019 08:00:00 11,0 1,5 11 6 14 8 NW 1032,5 - 0,0
13.02.2019 07:00:00 10,8 1,6 5 3 14 7 NW 1031,8 20 0,0
13.02.2019 06:00:00 11,0 0,4 6 4 10 6 W 1031,0 - 0,0
13.02.2019 05:00:00 10,9 -6,0 8 5 18 10 WNW 1030,4 - 0,0
13.02.2019 04:00:00 9,5 -6,0 14 8 22 12 NW 1030,0 - 0,0
13.02.2019 03:00:00 9,7 -6,6 5 3 6 4 E 1029,5 - 0,0
13.02.2019 02:00:00 10,1 -7,2 5 3 8 5 WNW 1029,4 - 0,0
13.02.2019 01:00:00 8,9 -6,1 6 3 8 5 E 1029,3 - 0,0
13.02.2019 00:00:00 9,8 -7,9 0 0 6 3 N 1028,7 - 0,0
12.02.2019 23:00:00 9,8 -6,1 4 2 6 3 SE 1028,2 - 0,0
12.02.2019 22:00:00 10,1 -6,3 9 5 15 8 SSW 1027,7 - 0,0
12.02.2019 21:00:00 10,3 -5,3 15 8 21 11 SW 1027,0 - 0,0
12.02.2019 20:00:00 9,3 -2,3 17 9 20 11 SW 1026,7 - 0,0
12.02.2019 19:00:00 9,9 -0,6 18 10 21 11 SW 1026,3 - 0,0
12.02.2019 18:00:00 11,9 0,6 16 8 21 11 SSW 1025,4 - 0,0
12.02.2019 17:00:00 14,4 1,0 18 10 26 14 S 1024,8 - 0,0
12.02.2019 16:00:00 17,0 -4,3 5 3 31 17 N 1024,7 - 0,0
12.02.2019 15:00:00 16,7 4,7 13 7 28 15 ENE 1024,6 - 0,0
12.02.2019 14:00:00 17,0 0,2 21 12 30 16 NE 1024,4 - 0,0
12.02.2019 13:00:00 18,4 0,5 24 13 37 20 NNE 1024,9 - 0,0
12.02.2019 12:00:00 17,7 1,2 24 13 36 19 NNE 1025,6 - 0,0
12.02.2019 11:00:00 17,1 1,1 15 8 22 12 NNE 1025,5 - 0,0
12.02.2019 10:00:00 14,5 -1,2 6 3 27 15 SSW 1025,7 25 0,0
12.02.2019 09:00:00 12,6 -2,1 3 2 22 12 NE 1025,2 - 0,0
12.02.2019 08:00:00 10,3 -4,1 14 8 25 14 NW 1024,8 - 0,0
12.02.2019 07:00:00 10,1 -4,0 17 9 27 15 NW 1023,9 - 0,0
12.02.2019 06:00:00 10,0 -3,3 18 10 29 15 NW 1023,2 - 0,0
12.02.2019 05:00:00 10,3 -5,3 20 11 35 19 NW 1022,6 - 0,0
12.02.2019 04:00:00 10,1 -5,9 21 11 38 20 N 1022,0 - 0,0
12.02.2019 03:00:00 9,6 -5,5 14 7 27 14 N 1022,1 - 0,0
12.02.2019 02:00:00 9,9 -5,7 11 6 35 19 N 1021,7 - 0,0
12.02.2019 01:00:00 11,1 -6,8 23 12 55 30 NNW 1020,7 - 0,0
12.02.2019 00:00:00 11,8 -7,6 29 16 54 29 NNW 1019,7 - 0,0
11.02.2019 23:00:00 11,8 -7,1 29 16 68 37 NNW 1019,2 - 0,0
11.02.2019 22:00:00 11,7 -6,2 29 16 50 27 NNW 1018,5 - 0,0
11.02.2019 21:00:00 11,7 -5,8 29 15 61 33 N 1017,7 - 0,0
11.02.2019 20:00:00 12,4 -9,4 34 18 61 33 NNW 1016,9 - 0,0
11.02.2019 19:00:00 11,1 -8,7 23 12 36 19 NW 1016,4 - 0,0
11.02.2019 18:00:00 11,5 -10,1 20 11 42 23 NNW 1015,5 - 0,0
11.02.2019 17:00:00 12,7 -6,9 21 11 50 27 NW 1014,6 - 0,0

tt = Température de l'air
td = dewpoint
ff = Vitesse du vent
fx = gusts
dd = Direction du vent
ppp = reduced air pressure
vv = visibility
rr = Quantités de précipitations

stations d'obs. à proximité